User: anonymous   Login
Location: Holmes Observatory
(37.1039°N, 122.0513°W)
Time: 02:11:39
(UTC-07:00)
Language:

Cosmos 921 Rocket - Orbit

View from above orbital plane
View from above orbital plane
View from above satellite
View from above satellite

Ground track
Ground track

The orbit data is extracted from the following two-line orbital elements,

1 10096U 77055B   16204.49104473  .00000068  00000-0  94578-5 0  9997
2 10096  75.8327 225.1711 0043483 325.7137  34.1248 14.88478966113197
Epoch (UTC): 22 July 2016 11:47:06
Eccentricity: 0.0043483
inclination: 75.8327°
perigee height: 572 km
apogee height: 633 km
right ascension of ascending node: 225.1711°
argument of perigee: 325.7137°
revolutions per day: 14.88478966
mean anomaly at epoch: 34.1248°
orbit number at epoch: 11319

The dashed part of the orbit path shows where the satellite is in the earth's shadow,  

DLR